User: anonymous   Login
Location: Bittelbronn
(48.4454°N, 8.5870°E)
Time: 19:28:06
(UTC+00:00)
Language:

Aureole 3 - Orbit

View from above orbital plane
View from above orbital plane
View from above satellite
View from above satellite

Ground track
Ground track

The orbit data is extracted from the following two-line orbital elements,

1 12848U 81094A   24199.55640899  .00007756  00000-0  41260-3 0  9997
2 12848  82.4752 198.1986 0523387 238.3704 116.5422 14.42187174158756
Epoch (UTC): 17 July 2024 13:21:13
Eccentricity: 0.0523387
inclination: 82.4752°
perigee height: 378 km
apogee height: 1124 km
right ascension of ascending node: 198.1986°
argument of perigee: 238.3704°
revolutions per day: 14.42187174
mean anomaly at epoch: 116.5422°
orbit number at epoch: 15875

The dashed part of the orbit path shows where the satellite is in the earth's shadow,  

DLR